Location: Corralito
(10.2667°N, 66.9500°W)
Time: 10:26:22
(UTC+00:00)

GPS 2-12 Rocket1 - Pass Details

Date: 09 December 2023
Orbit: 577 x 637 km, 20.0° (Epoch: 23 February)

Event Time Altitude Azimuth Distance (km) Brightness Sun altitude
Rises 23:23:59 0° 236° (SW) 2,921 8.0 -18.6°
Reaches altitude 10° 23:26:28 10° 229° (SW) 2,012 6.7 -19.1°
Maximum altitude 23:30:55 40° 159° (SSE) 922 3.9 -20.1°
Enters shadow 23:32:08 34° 123° (ESE) 1,042 3.9 -20.4°
